Time,TemperatureF,DewpointF,PressureIn,WindDirection,WindDirectionDegrees,WindSpeedMPH,WindSpeedGustMPH,Humidity,HourlyPrecipIn,Conditions,Clouds,dailyrainin,SoftwareType,DateUTC
2013-02-15 00:01:00,43.2,31.8,29.91,ENE,68,0.9,1.1,64,0.00,,,0.00,WUHU216HW,2013-02-15 08:01:00,
2013-02-15 00:06:00,43.2,31.8,29.91,ENE,68,0.2,1.1,64,0.00,,,0.00,WUHU216HW,2013-02-15 08:06:00,
2013-02-15 00:11:00,43.4,32.0,29.91,ENE,68,0.0,0.7,64,0.00,,,0.00,WUHU216HW,2013-02-15 08:11:00,
2013-02-15 00:16:00,43.2,31.8,29.91,ESE,113,1.1,1.1,64,0.00,,,0.00,WUHU216HW,2013-02-15 08:16:00,
2013-02-15 00:21:00,42.3,31.3,29.90,East,90,0.9,1.3,65,0.00,,,0.00,WUHU216HW,2013-02-15 08:21:00,
2013-02-15 00:26:00,41.9,31.0,29.90,East,90,0.4,1.3,65,0.00,,,0.00,WUHU216HW,2013-02-15 08:26:00,
2013-02-15 00:31:00,41.8,31.2,29.91,ENE,68,0.4,1.1,66,0.00,,,0.00,WUHU216HW,2013-02-15 08:31:00,
2013-02-15 00:36:00,41.6,31.4,29.91,SE,135,0.4,0.4,67,0.00,,,0.00,WUHU216HW,2013-02-15 08:36:00,
2013-02-15 00:41:00,41.2,31.1,29.90,ENE,68,1.1,1.6,67,0.00,,,0.00,WUHU216HW,2013-02-15 08:41:00,
2013-02-15 00:46:00,41.0,30.9,29.91,SE,135,1.6,2.5,67,0.00,,,0.00,WUHU216HW,2013-02-15 08:46:00,
2013-02-15 00:51:00,40.7,30.5,29.90,WSW,248,0.4,2.5,67,0.00,,,0.00,WUHU216HW,2013-02-15 08:51:00,
2013-02-15 00:56:00,40.3,30.2,29.91,SE,135,0.0,2.0,67,0.00,,,0.00,WUHU216HW,2013-02-15 08:56:00,
2013-02-15 01:01:00,40.5,30.3,29.91,SE,135,0.0,0.9,67,0.00,,,0.00,WUHU216HW,2013-02-15 09:01:00,
2013-02-15 01:06:00,40.3,30.2,29.91,NE,45,0.4,0.4,67,0.00,,,0.00,WUHU216HW,2013-02-15 09:06:00,
2013-02-15 01:11:00,40.1,30.0,29.90,NE,45,0.2,0.4,67,0.00,,,0.00,WUHU216HW,2013-02-15 09:11:00,
2013-02-15 01:16:00,40.1,30.4,29.90,North,0,0.0,0.4,68,0.00,,,0.00,WUHU216HW,2013-02-15 09:16:00,
2013-02-15 01:21:00,40.5,30.8,29.90,WSW,248,0.4,1.1,68,0.00,,,0.00,WUHU216HW,2013-02-15 09:21:00,
2013-02-15 01:26:00,40.5,30.8,29.91,SSE,158,0.0,1.1,68,0.00,,,0.00,WUHU216HW,2013-02-15 09:26:00,
2013-02-15 01:31:00,40.3,30.2,29.91,ENE,68,1.1,1.3,67,0.00,,,0.00,WUHU216HW,2013-02-15 09:31:00,
2013-02-15 01:36:00,40.3,30.6,29.91,East,90,0.2,1.3,68,0.00,,,0.00,WUHU216HW,2013-02-15 09:36:00,
2013-02-15 01:41:00,40.1,30.8,29.91,NE,45,0.0,1.6,69,0.00,,,0.00,WUHU216HW,2013-02-15 09:41:00,
2013-02-15 01:46:00,39.8,30.4,29.91,NE,45,0.4,1.6,69,0.00,,,0.00,WUHU216HW,2013-02-15 09:46:00,
2013-02-15 01:51:00,39.8,30.4,29.91,ENE,68,1.3,1.3,69,0.00,,,0.00,WUHU216HW,2013-02-15 09:51:00,
2013-02-15 01:56:00,39.8,30.4,29.91,ESE,113,0.7,1.3,69,0.00,,,0.00,WUHU216HW,2013-02-15 09:56:00,
2013-02-15 02:01:00,39.6,30.3,29.91,SSE,158,0.9,1.1,69,0.00,,,0.00,WUHU216HW,2013-02-15 10:01:00,
2013-02-15 02:06:00,39.2,29.9,29.91,SSE,158,0.0,0.9,69,0.00,,,0.00,WUHU216HW,2013-02-15 10:06:00,
2013-02-15 02:11:00,39.2,30.2,29.91,SE,135,0.0,0.4,70,0.00,,,0.00,WUHU216HW,2013-02-15 10:11:00,
2013-02-15 02:16:00,39.2,30.2,29.91,SE,135,0.0,0.4,70,0.00,,,0.00,WUHU216HW,2013-02-15 10:16:00,
2013-02-15 02:21:00,39.2,30.2,29.91,SE,135,0.0,0.9,70,0.00,,,0.00,WUHU216HW,2013-02-15 10:21:00,
2013-02-15 02:26:00,39.2,30.2,29.91,NE,45,0.4,0.9,70,0.00,,,0.00,WUHU216HW,2013-02-15 10:26:00,
2013-02-15 02:31:00,38.7,29.8,29.91,NE,45,0.7,0.9,70,0.00,,,0.00,WUHU216HW,2013-02-15 10:31:00,
2013-02-15 02:36:00,38.7,30.1,29.91,NE,45,0.4,0.9,71,0.00,,,0.00,WUHU216HW,2013-02-15 10:36:00,
2013-02-15 02:41:00,39.1,30.4,29.91,East,90,0.4,0.4,71,0.00,,,0.00,WUHU216HW,2013-02-15 10:41:00,
2013-02-15 02:46:00,38.9,30.2,29.91,ESE,113,0.7,1.1,71,0.00,,,0.00,WUHU216HW,2013-02-15 10:46:00,
2013-02-15 02:51:00,38.7,30.1,29.91,East,90,1.1,1.1,71,0.00,,,0.00,WUHU216HW,2013-02-15 10:51:00,
2013-02-15 02:56:00,38.5,30.0,29.91,East,90,0.0,1.1,71,0.00,,,0.00,WUHU216HW,2013-02-15 10:56:00,
2013-02-15 03:01:00,38.9,30.2,29.91,ENE,68,0.0,0.2,71,0.00,,,0.00,WUHU216HW,2013-02-15 11:01:00,
2013-02-15 03:06:00,39.1,30.4,29.90,SE,135,0.0,0.2,71,0.00,,,0.00,WUHU216HW,2013-02-15 11:06:00,
2013-02-15 03:11:00,39.2,30.6,29.90,NNE,23,0.4,0.7,71,0.00,,,0.00,WUHU216HW,2013-02-15 11:11:00,
2013-02-15 03:16:00,39.4,30.8,29.90,NNE,23,0.9,0.9,71,0.00,,,0.00,WUHU216HW,2013-02-15 11:16:00,
2013-02-15 03:21:00,39.2,30.6,29.90,ENE,68,0.7,1.6,71,0.00,,,0.00,WUHU216HW,2013-02-15 11:21:00,
2013-02-15 03:26:00,39.2,30.6,29.90,NE,45,0.4,1.6,71,0.00,,,0.00,WUHU216HW,2013-02-15 11:26:00,
2013-02-15 03:31:00,38.9,30.2,29.90,NE,45,0.7,0.9,71,0.00,,,0.00,WUHU216HW,2013-02-15 11:31:00,
2013-02-15 03:36:00,38.5,30.0,29.90,ENE,68,0.0,0.9,71,0.00,,,0.00,WUHU216HW,2013-02-15 11:36:00,
2013-02-15 03:41:00,38.5,30.0,29.90,NE,45,0.0,0.4,71,0.00,,,0.00,WUHU216HW,2013-02-15 11:41:00,
2013-02-15 03:46:00,38.5,30.0,29.90,SSE,158,0.0,0.2,71,0.00,,,0.00,WUHU216HW,2013-02-15 11:46:00,
2013-02-15 03:51:00,38.7,30.1,29.90,SE,135,0.0,0.7,71,0.00,,,0.00,WUHU216HW,2013-02-15 11:51:00,
2013-02-15 03:56:00,38.5,30.0,29.89,ESE,113,0.7,1.1,71,0.00,,,0.00,WUHU216HW,2013-02-15 11:56:00,
2013-02-15 04:01:00,38.0,29.4,29.90,ESE,113,0.0,1.3,71,0.00,,,0.00,WUHU216HW,2013-02-15 12:01:00,
2013-02-15 04:06:00,37.8,29.6,29.90,ESE,113,0.0,1.3,72,0.00,,,0.00,WUHU216HW,2013-02-15 12:06:00,
2013-02-15 04:11:00,37.8,29.6,29.90,East,90,0.0,0.4,72,0.00,,,0.00,WUHU216HW,2013-02-15 12:11:00,
2013-02-15 04:16:00,37.4,29.3,29.90,East,90,0.4,0.4,72,0.00,,,0.00,WUHU216HW,2013-02-15 12:16:00,
2013-02-15 04:21:00,37.1,29.3,29.90,ENE,68,0.7,0.7,73,0.00,,,0.00,WUHU216HW,2013-02-15 12:21:00,
2013-02-15 04:26:00,37.1,29.5,29.90,ENE,68,0.0,0.7,74,0.00,,,0.00,WUHU216HW,2013-02-15 12:26:00,
2013-02-15 04:31:00,37.1,29.5,29.90,ENE,68,0.0,0.4,74,0.00,,,0.00,WUHU216HW,2013-02-15 12:31:00,
2013-02-15 04:36:00,37.1,29.5,29.90,NE,45,0.2,0.4,74,0.00,,,0.00,WUHU216HW,2013-02-15 12:36:00,
2013-02-15 04:41:00,37.1,29.5,29.90,ENE,68,0.4,0.7,74,0.00,,,0.00,WUHU216HW,2013-02-15 12:41:00,
2013-02-15 04:46:00,37.1,29.5,29.90,ENE,68,0.0,0.7,74,0.00,,,0.00,WUHU216HW,2013-02-15 12:46:00,
2013-02-15 04:51:00,37.3,30.1,29.90,ENE,68,0.0,0.4,75,0.00,,,0.00,WUHU216HW,2013-02-15 12:51:00,
2013-02-15 04:56:00,37.3,30.1,29.90,ENE,68,0.0,0.0,75,0.00,,,0.00,WUHU216HW,2013-02-15 12:56:00,
2013-02-15 05:01:00,37.4,30.2,29.90,ENE,68,0.0,0.0,75,0.00,,,0.00,WUHU216HW,2013-02-15 13:01:00,
2013-02-15 05:06:00,37.4,30.2,29.90,ENE,68,0.0,0.0,75,0.00,,,0.00,WUHU216HW,2013-02-15 13:06:00,
2013-02-15 05:11:00,37.6,30.1,29.90,ENE,68,0.0,0.0,74,0.00,,,0.00,WUHU216HW,2013-02-15 13:11:00,
2013-02-15 05:16:00,37.6,30.4,29.90,ENE,68,0.0,0.0,75,0.00,,,0.00,WUHU216HW,2013-02-15 13:16:00,
2013-02-15 05:21:00,37.6,30.4,29.90,ENE,68,0.0,0.0,75,0.00,,,0.00,WUHU216HW,2013-02-15 13:21:00,
2013-02-15 05:26:00,37.4,29.9,29.90,NE,45,0.9,1.1,74,0.00,,,0.00,WUHU216HW,2013-02-15 13:26:00,
2013-02-15 05:31:00,36.0,28.2,29.90,ENE,68,0.7,1.1,73,0.00,,,0.00,WUHU216HW,2013-02-15 13:31:00,
2013-02-15 05:36:00,35.5,28.3,29.90,ENE,68,0.0,1.1,75,0.00,,,0.00,WUHU216HW,2013-02-15 13:36:00,
2013-02-15 05:41:00,34.9,28.1,29.90,ESE,113,0.4,0.7,76,0.00,,,0.00,WUHU216HW,2013-02-15 13:41:00,
2013-02-15 05:46:00,35.3,28.5,29.90,NE,45,0.4,1.1,76,0.00,,,0.00,WUHU216HW,2013-02-15 13:46:00,
2013-02-15 05:51:00,36.0,29.2,29.90,ENE,68,0.0,1.1,76,0.00,,,0.00,WUHU216HW,2013-02-15 13:51:00,
2013-02-15 05:56:00,36.4,29.5,29.89,ESE,113,0.9,0.9,76,0.00,,,0.00,WUHU216HW,2013-02-15 13:56:00,
2013-02-15 06:01:00,36.4,29.5,29.89,SSE,158,0.0,0.9,76,0.00,,,0.00,WUHU216HW,2013-02-15 14:01:00,
2013-02-15 06:06:00,36.4,29.2,29.89,SSE,158,0.0,0.7,75,0.00,,,0.00,WUHU216HW,2013-02-15 14:06:00,
2013-02-15 06:11:00,36.4,29.2,29.89,ESE,113,0.0,0.0,75,0.00,,,0.00,WUHU216HW,2013-02-15 14:11:00,
2013-02-15 06:16:00,36.4,29.2,29.89,NNE,23,0.0,0.0,75,0.00,,,0.00,WUHU216HW,2013-02-15 14:16:00,
2013-02-15 06:21:00,36.0,28.8,29.90,ESE,113,0.9,0.9,75,0.00,,,0.00,WUHU216HW,2013-02-15 14:21:00,
2013-02-15 06:26:00,36.0,29.2,29.90,SE,135,0.2,0.9,76,0.00,,,0.00,WUHU216HW,2013-02-15 14:26:00,
2013-02-15 06:31:00,35.3,28.1,29.90,SE,135,0.9,0.9,75,0.00,,,0.00,WUHU216HW,2013-02-15 14:31:00,
2013-02-15 06:36:00,34.2,27.6,29.90,SSE,158,1.1,1.1,77,0.00,,,0.00,WUHU216HW,2013-02-15 14:36:00,
2013-02-15 06:41:00,34.2,28.0,29.90,ENE,68,0.4,1.1,78,0.00,,,0.00,WUHU216HW,2013-02-15 14:41:00,
2013-02-15 06:46:00,34.7,28.5,29.90,NE,45,0.4,1.1,78,0.00,,,0.00,WUHU216HW,2013-02-15 14:46:00,
2013-02-15 06:51:00,34.9,28.7,29.91,SSW,203,0.0,0.4,78,0.00,,,0.00,WUHU216HW,2013-02-15 14:51:00,
2013-02-15 06:56:00,34.9,28.4,29.90,SSE,158,1.1,1.1,77,0.00,,,0.00,WUHU216HW,2013-02-15 14:56:00,
2013-02-15 07:01:00,34.9,28.4,29.90,SSE,158,0.4,1.1,77,0.00,,,0.00,WUHU216HW,2013-02-15 15:01:00,
2013-02-15 07:06:00,34.7,28.2,29.90,SSE,158,0.0,0.7,77,0.00,,,0.00,WUHU216HW,2013-02-15 15:06:00,
2013-02-15 07:11:00,34.9,28.7,29.91,South,180,0.7,0.7,78,0.00,,,0.00,WUHU216HW,2013-02-15 15:11:00,
2013-02-15 07:16:00,35.1,28.5,29.90,SE,135,0.0,0.7,77,0.00,,,0.00,WUHU216HW,2013-02-15 15:16:00,
2013-02-15 07:21:00,35.3,28.7,29.90,SSE,158,0.0,0.4,77,0.00,,,0.00,WUHU216HW,2013-02-15 15:21:00,
2013-02-15 07:26:00,35.3,28.7,29.91,SSE,158,0.0,0.4,77,0.00,,,0.00,WUHU216HW,2013-02-15 15:26:00,
2013-02-15 07:31:00,35.5,28.9,29.90,South,180,0.4,0.4,77,0.00,,,0.00,WUHU216HW,2013-02-15 15:31:00,
2013-02-15 07:36:00,35.5,28.9,29.90,South,180,0.2,0.4,77,0.00,,,0.00,WUHU216HW,2013-02-15 15:36:00,
2013-02-15 07:41:00,35.6,29.1,29.91,SSE,158,0.4,0.4,77,0.00,,,0.00,WUHU216HW,2013-02-15 15:41:00,
2013-02-15 07:46:00,35.8,29.6,29.91,SSE,158,0.2,0.9,78,0.00,,,0.00,WUHU216HW,2013-02-15 15:46:00,
2013-02-15 07:51:00,36.2,29.6,29.91,SE,135,0.9,0.9,77,0.00,,,0.00,WUHU216HW,2013-02-15 15:51:00,
2013-02-15 07:56:00,36.4,29.8,29.91,SE,135,0.2,1.1,77,0.00,,,0.00,WUHU216HW,2013-02-15 15:56:00,
2013-02-15 08:01:00,36.4,29.8,29.91,SSW,203,0.7,1.1,77,0.00,,,0.00,WUHU216HW,2013-02-15 16:01:00,
2013-02-15 08:06:00,36.7,30.2,29.91,South,180,0.0,0.7,77,0.00,,,0.00,WUHU216HW,2013-02-15 16:06:00,
2013-02-15 08:11:00,36.9,30.3,29.91,WSW,248,0.0,0.4,77,0.00,,,0.00,WUHU216HW,2013-02-15 16:11:00,
2013-02-15 08:16:00,37.1,30.5,29.91,SSW,203,0.0,0.4,77,0.00,,,0.00,WUHU216HW,2013-02-15 16:16:00,
2013-02-15 08:21:00,37.3,30.7,29.91,SSE,158,0.4,0.4,77,0.00,,,0.00,WUHU216HW,2013-02-15 16:21:00,
2013-02-15 08:26:00,37.6,31.1,29.92,SE,135,1.1,1.1,77,0.00,,,0.00,WUHU216HW,2013-02-15 16:26:00,
2013-02-15 08:31:00,37.8,30.9,29.92,East,90,0.0,1.3,76,0.00,,,0.00,WUHU216HW,2013-02-15 16:31:00,
2013-02-15 08:36:00,37.8,30.9,29.92,NNE,23,0.0,1.3,76,0.00,,,0.00,WUHU216HW,2013-02-15 16:36:00,
2013-02-15 08:41:00,38.0,31.1,29.92,NNE,23,0.2,0.4,76,0.00,,,0.00,WUHU216HW,2013-02-15 16:41:00,
2013-02-15 08:46:00,38.0,31.4,29.92,SE,135,0.2,0.2,77,0.00,,,0.00,WUHU216HW,2013-02-15 16:46:00,
2013-02-15 08:51:00,38.2,31.6,29.92,ESE,113,1.1,1.1,77,0.00,,,0.00,WUHU216HW,2013-02-15 16:51:00,
2013-02-15 08:56:00,38.2,31.6,29.92,East,90,0.4,1.1,77,0.00,,,0.00,WUHU216HW,2013-02-15 16:56:00,
2013-02-15 09:01:00,38.3,31.8,29.92,East,90,0.0,1.1,77,0.00,,,0.00,WUHU216HW,2013-02-15 17:01:00,
2013-02-15 09:06:00,38.5,32.0,29.92,SE,135,1.6,1.6,77,0.00,,,0.00,WUHU216HW,2013-02-15 17:06:00,
2013-02-15 09:11:00,38.5,32.0,29.92,ESE,113,1.8,1.8,77,0.00,,,0.00,WUHU216HW,2013-02-15 17:11:00,
2013-02-15 09:16:00,38.7,31.8,29.91,East,90,1.3,2.2,76,0.00,,,0.00,WUHU216HW,2013-02-15 17:16:00,
2013-02-15 09:21:00,38.9,32.0,29.91,East,90,1.3,2.5,76,0.00,,,0.00,WUHU216HW,2013-02-15 17:21:00,
2013-02-15 09:26:00,39.2,32.3,29.91,ESE,113,1.1,2.5,76,0.00,,,0.00,WUHU216HW,2013-02-15 17:26:00,
2013-02-15 09:31:00,39.2,32.0,29.91,SW,225,0.7,2.0,75,0.00,,,0.00,WUHU216HW,2013-02-15 17:31:00,
2013-02-15 09:36:00,39.4,32.1,29.91,ENE,68,2.0,2.0,75,0.00,,,0.00,WUHU216HW,2013-02-15 17:36:00,
2013-02-15 09:41:00,39.6,32.3,29.91,SE,135,0.4,2.0,75,0.00,,,0.00,WUHU216HW,2013-02-15 17:41:00,
2013-02-15 09:46:00,39.6,32.0,29.91,NNW,338,0.4,1.3,74,0.00,,,0.00,WUHU216HW,2013-02-15 17:46:00,
2013-02-15 09:51:00,39.6,32.0,29.91,ESE,113,0.4,1.3,74,0.00,,,0.00,WUHU216HW,2013-02-15 17:51:00,
2013-02-15 09:56:00,39.8,32.1,29.91,ESE,113,1.3,1.3,74,0.00,,,0.00,WUHU216HW,2013-02-15 17:56:00,
2013-02-15 10:01:00,40.0,32.3,29.91,SSE,158,0.4,1.6,74,0.00,,,0.00,WUHU216HW,2013-02-15 18:01:00,
2013-02-15 10:06:00,40.1,32.5,29.91,SE,135,0.7,1.6,74,0.00,,,0.00,WUHU216HW,2013-02-15 18:06:00,
2013-02-15 10:11:00,40.5,32.9,29.90,NNW,338,1.1,1.1,74,0.00,,,0.00,WUHU216HW,2013-02-15 18:11:00,
2013-02-15 10:16:00,40.7,33.0,29.90,NNE,23,0.7,1.8,74,0.00,,,0.00,WUHU216HW,2013-02-15 18:16:00,
2013-02-15 10:21:00,40.7,32.7,29.90,ESE,113,1.3,2.5,73,0.00,,,0.00,WUHU216HW,2013-02-15 18:21:00,
2013-02-15 10:26:00,41.2,33.2,29.90,SE,135,0.0,2.5,73,0.00,,,0.00,WUHU216HW,2013-02-15 18:26:00,
2013-02-15 10:31:00,41.2,33.2,29.90,SW,225,1.1,2.2,73,0.00,,,0.00,WUHU216HW,2013-02-15 18:31:00,
2013-02-15 10:36:00,41.6,33.6,29.90,South,180,0.2,2.2,73,0.00,,,0.00,WUHU216HW,2013-02-15 18:36:00,
2013-02-15 10:41:00,41.8,33.8,29.90,South,180,0.9,1.8,73,0.00,,,0.00,WUHU216HW,2013-02-15 18:41:00,
2013-02-15 10:46:00,42.1,33.8,29.89,ENE,68,1.1,1.6,72,0.00,,,0.00,WUHU216HW,2013-02-15 18:46:00,
2013-02-15 10:51:00,42.3,33.9,29.89,NW,315,2.5,2.5,72,0.00,,,0.00,WUHU216HW,2013-02-15 18:51:00,
2013-02-15 10:56:00,42.8,34.5,29.89,West,270,0.9,2.5,72,0.00,,,0.00,WUHU216HW,2013-02-15 18:56:00,
2013-02-15 11:01:00,42.8,34.5,29.89,NNW,338,2.9,2.9,72,0.00,,,0.00,WUHU216HW,2013-02-15 19:01:00,
2013-02-15 11:06:00,43.2,34.5,29.89,NNW,338,1.8,2.9,71,0.00,,,0.00,WUHU216HW,2013-02-15 19:06:00,
2013-02-15 11:11:00,43.2,34.5,29.88,East,90,1.6,2.0,71,0.00,,,0.00,WUHU216HW,2013-02-15 19:11:00,
2013-02-15 11:16:00,43.2,34.5,29.89,North,0,1.1,2.0,71,0.00,,,0.00,WUHU216HW,2013-02-15 19:16:00,
2013-02-15 11:21:00,43.4,34.7,29.88,NNW,338,1.6,1.8,71,0.00,,,0.00,WUHU216HW,2013-02-15 19:21:00,
2013-02-15 11:26:00,43.7,35.0,29.88,WSW,248,1.1,1.6,71,0.00,,,0.00,WUHU216HW,2013-02-15 19:26:00,
2013-02-15 11:31:00,44.3,35.8,29.88,NNE,23,1.1,1.6,72,0.00,,,0.00,WUHU216HW,2013-02-15 19:31:00,
2013-02-15 11:36:00,44.3,35.5,29.88,NNW,338,1.1,1.1,71,0.00,,,0.00,WUHU216HW,2013-02-15 19:36:00,
2013-02-15 11:41:00,44.3,35.5,29.87,East,90,0.2,2.0,71,0.00,,,0.00,WUHU216HW,2013-02-15 19:41:00,
2013-02-15 11:46:00,44.3,35.5,29.87,NNE,23,1.1,2.0,71,0.00,,,0.00,WUHU216HW,2013-02-15 19:46:00,
2013-02-15 11:51:00,44.5,35.7,29.87,ESE,113,0.2,1.6,71,0.00,,,0.00,WUHU216HW,2013-02-15 19:51:00,
2013-02-15 11:56:00,44.8,36.0,29.87,North,0,0.2,1.6,71,0.00,,,0.00,WUHU216HW,2013-02-15 19:56:00,
2013-02-15 12:01:00,45.0,35.8,29.86,WSW,248,1.8,2.7,70,0.00,,,0.00,WUHU216HW,2013-02-15 20:01:00,
2013-02-15 12:06:00,45.7,36.5,29.86,West,270,1.6,2.7,70,0.00,,,0.00,WUHU216HW,2013-02-15 20:06:00,
2013-02-15 12:11:00,45.7,36.5,29.86,SW,225,5.1,5.1,70,0.00,,,0.00,WUHU216HW,2013-02-15 20:11:00,
2013-02-15 12:16:00,46.1,36.6,29.85,West,270,1.3,5.1,69,0.00,,,0.00,WUHU216HW,2013-02-15 20:16:00,
2013-02-15 12:21:00,46.4,36.9,29.85,NNW,338,0.4,2.2,69,0.00,,,0.00,WUHU216HW,2013-02-15 20:21:00,
2013-02-15 12:26:00,46.8,37.2,29.85,NNW,338,1.8,2.5,69,0.00,,,0.00,WUHU216HW,2013-02-15 20:26:00,
2013-02-15 12:31:00,46.8,36.8,29.84,NW,315,0.2,2.5,68,0.00,,,0.00,WUHU216HW,2013-02-15 20:31:00,
2013-02-15 12:36:00,47.0,37.0,29.84,West,270,0.4,2.2,68,0.00,,,0.00,WUHU216HW,2013-02-15 20:36:00,
2013-02-15 12:41:00,47.2,37.2,29.84,ESE,113,0.0,2.2,68,0.00,,,0.00,WUHU216HW,2013-02-15 20:41:00,
2013-02-15 12:46:00,47.3,37.3,29.84,NW,315,1.8,1.8,68,0.00,,,0.00,WUHU216HW,2013-02-15 20:46:00,
2013-02-15 12:51:00,47.7,37.6,29.83,ESE,113,1.1,1.8,68,0.00,,,0.00,WUHU216HW,2013-02-15 20:51:00,
2013-02-15 12:56:00,47.7,37.6,29.83,SE,135,0.7,1.8,68,0.00,,,0.00,WUHU216HW,2013-02-15 20:56:00,
2013-02-15 13:01:00,47.9,37.8,29.83,East,90,0.9,2.0,68,0.00,,,0.00,WUHU216HW,2013-02-15 21:01:00,
2013-02-15 13:06:00,48.4,37.9,29.82,NNW,338,2.7,4.3,67,0.00,,,0.00,WUHU216HW,2013-02-15 21:06:00,
2013-02-15 13:11:00,48.6,37.7,29.82,WNW,293,1.6,4.3,66,0.00,,,0.00,WUHU216HW,2013-02-15 21:11:00,
2013-02-15 13:16:00,48.6,37.7,29.82,NNW,338,2.9,2.9,66,0.00,,,0.00,WUHU216HW,2013-02-15 21:16:00,
2013-02-15 13:21:00,48.8,37.5,29.82,ESE,113,1.8,2.9,65,0.00,,,0.00,WUHU216HW,2013-02-15 21:21:00,
2013-02-15 13:27:00,48.8,37.5,29.81,NE,45,2.7,2.7,65,0.00,,,0.00,WUHU216HW,2013-02-15 21:27:00,
2013-02-15 13:32:00,49.1,37.8,29.81,SW,225,0.0,2.7,65,0.00,,,0.00,WUHU216HW,2013-02-15 21:32:00,
2013-02-15 13:37:00,49.3,38.0,29.81,NNW,338,2.0,2.7,65,0.00,,,0.00,WUHU216HW,2013-02-15 21:37:00,
2013-02-15 13:42:00,49.3,38.0,29.80,ENE,68,1.3,2.0,65,0.00,,,0.00,WUHU216HW,2013-02-15 21:42:00,
2013-02-15 13:47:00,49.7,38.0,29.80,ESE,113,0.7,1.8,64,0.00,,,0.00,WUHU216HW,2013-02-15 21:47:00,
2013-02-15 13:52:00,49.9,38.2,29.80,ESE,113,0.7,1.8,64,0.00,,,0.00,WUHU216HW,2013-02-15 21:52:00,
2013-02-15 13:57:00,50.0,38.4,29.79,NNW,338,1.1,1.6,64,0.00,,,0.00,WUHU216HW,2013-02-15 21:57:00,
2013-02-15 14:02:00,50.4,38.6,29.79,NNE,23,1.3,2.5,64,0.00,,,0.00,WUHU216HW,2013-02-15 22:02:00,
2013-02-15 14:07:00,50.6,38.8,29.79,SSE,158,0.9,2.5,64,0.00,,,0.00,WUHU216HW,2013-02-15 22:07:00,
2013-02-15 14:12:00,50.6,38.4,29.78,WNW,293,2.0,2.0,63,0.00,,,0.00,WUHU216HW,2013-02-15 22:12:00,
2013-02-15 14:17:00,50.8,38.6,29.78,ENE,68,0.4,2.0,63,0.00,,,0.00,WUHU216HW,2013-02-15 22:17:00,
2013-02-15 14:22:00,50.9,38.7,29.78,WNW,293,2.2,2.2,63,0.00,,,0.00,WUHU216HW,2013-02-15 22:22:00,
2013-02-15 14:27:00,51.1,38.5,29.78,NNW,338,1.8,2.2,62,0.00,,,0.00,WUHU216HW,2013-02-15 22:27:00,
2013-02-15 14:32:00,51.5,38.9,29.77,ESE,113,2.7,2.7,62,0.00,,,0.00,WUHU216HW,2013-02-15 22:32:00,
2013-02-15 14:37:00,51.5,38.9,29.77,ESE,113,2.2,2.7,62,0.00,,,0.00,WUHU216HW,2013-02-15 22:37:00,
2013-02-15 14:42:00,51.7,39.0,29.77,ESE,113,2.7,2.7,62,0.00,,,0.00,WUHU216HW,2013-02-15 22:42:00,
2013-02-15 14:47:00,51.8,39.2,29.77,ENE,68,0.4,2.7,62,0.00,,,0.00,WUHU216HW,2013-02-15 22:47:00,
2013-02-15 14:52:00,52.2,39.2,29.77,ENE,68,3.1,3.1,61,0.00,,,0.00,WUHU216HW,2013-02-15 22:52:00,
2013-02-15 14:57:00,52.2,39.2,29.77,ENE,68,2.2,3.1,61,0.00,,,0.00,WUHU216HW,2013-02-15 22:57:00,
2013-02-15 15:02:00,52.4,38.9,29.76,ESE,113,0.7,2.2,60,0.00,,,0.00,WUHU216HW,2013-02-15 23:02:00,
2013-02-15 15:07:00,52.4,38.9,29.76,West,270,0.9,2.2,60,0.00,,,0.00,WUHU216HW,2013-02-15 23:07:00,
2013-02-15 15:12:00,52.7,39.2,29.75,East,90,0.4,2.5,60,0.00,,,0.00,WUHU216HW,2013-02-15 23:12:00,
2013-02-15 15:17:00,52.9,39.4,29.76,ENE,68,0.4,2.5,60,0.00,,,0.00,WUHU216HW,2013-02-15 23:17:00,
2013-02-15 15:22:00,53.1,39.6,29.75,West,270,0.4,2.2,60,0.00,,,0.00,WUHU216HW,2013-02-15 23:22:00,
2013-02-15 15:27:00,53.5,39.5,29.75,West,270,0.9,1.3,59,0.00,,,0.00,WUHU216HW,2013-02-15 23:27:00,
2013-02-15 15:32:00,53.6,39.7,29.75,SSE,158,1.3,1.8,59,0.00,,,0.00,WUHU216HW,2013-02-15 23:32:00,
2013-02-15 15:37:00,53.8,39.3,29.75,NE,45,1.6,1.8,58,0.00,,,0.00,WUHU216HW,2013-02-15 23:37:00,
2013-02-15 15:42:00,53.8,39.3,29.75,NNE,23,0.4,1.8,58,0.00,,,0.00,WUHU216HW,2013-02-15 23:42:00,
2013-02-15 15:47:00,54.0,39.5,29.74,North,0,0.9,2.5,58,0.00,,,0.00,WUHU216HW,2013-02-15 23:47:00,
2013-02-15 15:52:00,54.2,39.7,29.74,ESE,113,1.1,2.5,58,0.00,,,0.00,WUHU216HW,2013-02-15 23:52:00,
2013-02-15 15:57:00,54.2,39.7,29.74,NE,45,0.9,1.8,58,0.00,,,0.00,WUHU216HW,2013-02-15 23:57:00,
2013-02-15 16:02:00,54.4,39.4,29.74,NE,45,0.7,1.8,57,0.00,,,0.00,WUHU216HW,2013-02-16 00:02:00,
2013-02-15 16:07:00,54.4,39.4,29.73,NE,45,0.2,1.3,57,0.00,,,0.00,WUHU216HW,2013-02-16 00:07:00,
2013-02-15 16:12:00,54.4,39.4,29.74,NNW,338,1.1,2.0,57,0.00,,,0.00,WUHU216HW,2013-02-16 00:12:00,
2013-02-15 16:17:00,54.4,38.9,29.73,WSW,248,1.3,2.0,56,0.00,,,0.00,WUHU216HW,2013-02-16 00:17:00,
2013-02-15 16:22:00,54.4,39.4,29.73,ESE,113,0.4,1.8,57,0.00,,,0.00,WUHU216HW,2013-02-16 00:22:00,
2013-02-15 16:27:00,54.4,39.4,29.73,NE,45,0.7,1.3,57,0.00,,,0.00,WUHU216HW,2013-02-16 00:27:00,
2013-02-15 16:32:00,54.4,39.4,29.73,East,90,0.2,0.7,57,0.00,,,0.00,WUHU216HW,2013-02-16 00:32:00,
2013-02-15 16:37:00,54.4,39.4,29.73,South,180,0.0,1.3,57,0.00,,,0.00,WUHU216HW,2013-02-16 00:37:00,
2013-02-15 16:42:00,54.4,39.4,29.73,NE,45,0.0,1.3,57,0.00,,,0.00,WUHU216HW,2013-02-16 00:42:00,
2013-02-15 16:47:00,54.4,39.4,29.73,NE,45,0.4,1.1,57,0.00,,,0.00,WUHU216HW,2013-02-16 00:47:00,
2013-02-15 16:52:00,54.2,38.8,29.72,NNE,23,0.4,1.1,56,0.00,,,0.00,WUHU216HW,2013-02-16 00:52:00,
2013-02-15 16:57:00,53.8,38.9,29.72,North,0,0.0,0.7,57,0.00,,,0.00,WUHU216HW,2013-02-16 00:57:00,
2013-02-15 17:02:00,53.3,38.4,29.72,SE,135,0.4,0.4,57,0.00,,,0.00,WUHU216HW,2013-02-16 01:02:00,
2013-02-15 17:07:00,52.9,38.1,29.72,North,0,0.0,0.4,57,0.00,,,0.00,WUHU216HW,2013-02-16 01:07:00,
2013-02-15 17:12:00,52.2,37.4,29.72,ENE,68,0.0,0.2,57,0.00,,,0.00,WUHU216HW,2013-02-16 01:12:00,
2013-02-15 17:17:00,51.8,37.4,29.72,ENE,68,0.0,0.2,58,0.00,,,0.00,WUHU216HW,2013-02-16 01:17:00,
2013-02-15 17:22:00,51.5,37.1,29.72,NE,45,0.0,0.2,58,0.00,,,0.00,WUHU216HW,2013-02-16 01:22:00,
2013-02-15 17:27:00,51.1,36.8,29.72,NE,45,0.0,0.4,58,0.00,,,0.00,WUHU216HW,2013-02-16 01:27:00,
2013-02-15 17:32:00,50.8,36.9,29.72,ENE,68,0.2,0.4,59,0.00,,,0.00,WUHU216HW,2013-02-16 01:32:00,
2013-02-15 17:37:00,50.4,36.6,29.71,ENE,68,0.4,0.4,59,0.00,,,0.00,WUHU216HW,2013-02-16 01:37:00,
2013-02-15 17:42:00,50.0,36.3,29.71,NE,45,0.2,0.4,59,0.00,,,0.00,WUHU216HW,2013-02-16 01:42:00,
2013-02-15 17:47:00,49.7,35.9,29.71,NNE,23,0.4,0.4,59,0.00,,,0.00,WUHU216HW,2013-02-16 01:47:00,
2013-02-15 17:52:00,49.3,36.1,29.71,NNE,23,0.4,0.4,60,0.00,,,0.00,WUHU216HW,2013-02-16 01:52:00,
2013-02-15 17:57:00,49.1,35.9,29.71,NE,45,0.2,0.7,60,0.00,,,0.00,WUHU216HW,2013-02-16 01:57:00,
2013-02-15 18:02:00,49.0,35.7,29.70,NNE,23,0.4,0.7,60,0.00,,,0.00,WUHU216HW,2013-02-16 02:02:00,
2013-02-15 18:07:00,48.6,35.8,29.71,ENE,68,0.2,0.4,61,0.00,,,0.00,WUHU216HW,2013-02-16 02:07:00,
2013-02-15 18:12:00,48.6,35.8,29.71,ENE,68,0.4,0.4,61,0.00,,,0.00,WUHU216HW,2013-02-16 02:12:00,
2013-02-15 18:17:00,48.6,35.8,29.70,ENE,68,0.2,0.4,61,0.00,,,0.00,WUHU216HW,2013-02-16 02:17:00,
2013-02-15 18:22:00,48.4,35.6,29.70,East,90,0.4,0.4,61,0.00,,,0.00,WUHU216HW,2013-02-16 02:22:00,
2013-02-15 18:27:00,48.2,35.5,29.70,NE,45,0.2,0.4,61,0.00,,,0.00,WUHU216HW,2013-02-16 02:27:00,
2013-02-15 18:32:00,47.9,35.1,29.70,NE,45,0.2,1.1,61,0.00,,,0.00,WUHU216HW,2013-02-16 02:32:00,
2013-02-15 18:37:00,47.9,35.1,29.70,NE,45,0.4,1.1,61,0.00,,,0.00,WUHU216HW,2013-02-16 02:37:00,
2013-02-15 18:42:00,47.7,34.9,29.70,NE,45,0.2,1.1,61,0.00,,,0.00,WUHU216HW,2013-02-16 02:42:00,
2013-02-15 18:47:00,47.5,34.7,29.70,NE,45,0.4,1.1,61,0.00,,,0.00,WUHU216HW,2013-02-16 02:47:00,
2013-02-15 18:52:00,47.3,34.6,29.69,ENE,68,1.3,1.3,61,0.00,,,0.00,WUHU216HW,2013-02-16 02:52:00,
2013-02-15 18:57:00,47.2,34.4,29.69,ENE,68,0.2,1.3,61,0.00,,,0.00,WUHU216HW,2013-02-16 02:57:00,
2013-02-15 19:02:00,46.8,34.5,29.69,NE,45,0.4,0.9,62,0.00,,,0.00,WUHU216HW,2013-02-16 03:02:00,
2013-02-15 19:07:00,46.6,34.3,29.69,NE,45,0.7,0.7,62,0.00,,,0.00,WUHU216HW,2013-02-16 03:07:00,
2013-02-15 19:12:00,46.6,34.3,29.68,NE,45,0.7,0.7,62,0.00,,,0.00,WUHU216HW,2013-02-16 03:12:00,
2013-02-15 19:17:00,46.6,34.7,29.68,NNE,23,0.2,0.7,63,0.00,,,0.00,WUHU216HW,2013-02-16 03:17:00,
2013-02-15 19:22:00,46.4,34.5,29.68,NNE,23,0.4,0.7,63,0.00,,,0.00,WUHU216HW,2013-02-16 03:22:00,
2013-02-15 19:27:00,46.3,34.3,29.68,NE,45,0.2,0.4,63,0.00,,,0.00,WUHU216HW,2013-02-16 03:27:00,
2013-02-15 19:32:00,46.3,34.3,29.69,NNW,338,1.8,1.8,63,0.00,,,0.00,WUHU216HW,2013-02-16 03:32:00,
2013-02-15 19:37:00,46.3,34.3,29.68,NNW,338,1.3,1.8,63,0.00,,,0.00,WUHU216HW,2013-02-16 03:37:00,
2013-02-15 19:42:00,46.3,34.3,29.68,NE,45,0.4,1.8,63,0.00,,,0.00,WUHU216HW,2013-02-16 03:42:00,
2013-02-15 19:47:00,46.1,34.1,29.68,ENE,68,0.4,1.1,63,0.00,,,0.00,WUHU216HW,2013-02-16 03:47:00,
2013-02-15 19:52:00,45.9,34.0,29.69,NNW,338,0.2,0.7,63,0.00,,,0.00,WUHU216HW,2013-02-16 03:52:00,
2013-02-15 19:57:00,46.1,34.6,29.69,NW,315,0.9,1.6,64,0.00,,,0.00,WUHU216HW,2013-02-16 03:57:00,
2013-02-15 20:02:00,46.1,34.6,29.68,NNE,23,1.6,1.6,64,0.00,,,0.00,WUHU216HW,2013-02-16 04:02:00,
2013-02-15 20:07:00,45.7,34.2,29.68,ENE,68,0.9,1.6,64,0.00,,,0.00,WUHU216HW,2013-02-16 04:07:00,
2013-02-15 20:12:00,45.5,34.0,29.67,ENE,68,0.0,1.1,64,0.00,,,0.00,WUHU216HW,2013-02-16 04:12:00,
2013-02-15 20:17:00,45.7,34.2,29.67,WSW,248,1.3,1.3,64,0.00,,,0.00,WUHU216HW,2013-02-16 04:17:00,
2013-02-15 20:22:00,45.5,34.0,29.67,SW,225,0.2,1.6,64,0.00,,,0.00,WUHU216HW,2013-02-16 04:22:00,
2013-02-15 20:27:00,45.5,34.0,29.67,WSW,248,0.0,1.6,64,0.00,,,0.00,WUHU216HW,2013-02-16 04:27:00,
2013-02-15 20:32:00,45.5,34.0,29.67,NNW,338,0.0,0.9,64,0.00,,,0.00,WUHU216HW,2013-02-16 04:32:00,
2013-02-15 20:37:00,45.7,34.2,29.67,WSW,248,0.2,0.9,64,0.00,,,0.00,WUHU216HW,2013-02-16 04:37:00,
2013-02-15 20:42:00,45.7,34.2,29.67,West,270,0.4,1.1,64,0.00,,,0.00,WUHU216HW,2013-02-16 04:42:00,
2013-02-15 20:47:00,45.7,34.2,29.67,NW,315,0.0,1.1,64,0.00,,,0.00,WUHU216HW,2013-02-16 04:47:00,
2013-02-15 20:52:00,45.7,34.2,29.67,SW,225,0.4,0.7,64,0.00,,,0.00,WUHU216HW,2013-02-16 04:52:00,
2013-02-15 20:57:00,45.7,34.2,29.67,WSW,248,1.1,1.3,64,0.00,,,0.00,WUHU216HW,2013-02-16 04:57:00,
2013-02-15 21:02:00,45.4,33.8,29.67,South,180,1.8,1.8,64,0.00,,,0.00,WUHU216HW,2013-02-16 05:02:00,
2013-02-15 21:07:00,45.2,33.7,29.66,WSW,248,0.4,1.8,64,0.00,,,0.00,WUHU216HW,2013-02-16 05:07:00,
2013-02-15 21:12:00,45.0,33.9,29.66,NW,315,0.0,1.1,65,0.00,,,0.00,WUHU216HW,2013-02-16 05:12:00,
2013-02-15 21:17:00,45.0,33.9,29.66,WSW,248,0.0,0.0,65,0.00,,,0.00,WUHU216HW,2013-02-16 05:17:00,
2013-02-15 21:22:00,44.8,33.8,29.66,WSW,248,0.2,0.2,65,0.00,,,0.00,WUHU216HW,2013-02-16 05:22:00,
2013-02-15 21:27:00,44.8,33.8,29.66,SSW,203,1.1,1.1,65,0.00,,,0.00,WUHU216HW,2013-02-16 05:27:00,
2013-02-15 21:32:00,44.6,33.6,29.66,WSW,248,0.0,1.1,65,0.00,,,0.00,WUHU216HW,2013-02-16 05:32:00,
2013-02-15 21:37:00,44.6,33.6,29.66,NW,315,0.0,1.1,65,0.00,,,0.00,WUHU216HW,2013-02-16 05:37:00,
2013-02-15 21:42:00,45.0,33.9,29.66,WSW,248,0.0,0.0,65,0.00,,,0.00,WUHU216HW,2013-02-16 05:42:00,
2013-02-15 21:47:00,45.2,34.1,29.66,NNW,338,0.0,0.0,65,0.00,,,0.00,WUHU216HW,2013-02-16 05:47:00,
2013-02-15 21:52:00,45.2,34.1,29.66,NNE,23,0.4,0.4,65,0.00,,,0.00,WUHU216HW,2013-02-16 05:52:00,
2013-02-15 21:57:00,44.8,33.8,29.66,North,0,0.4,0.4,65,0.00,,,0.00,WUHU216HW,2013-02-16 05:57:00,
2013-02-15 22:02:00,44.6,33.9,29.66,NW,315,0.0,0.4,66,0.00,,,0.00,WUHU216HW,2013-02-16 06:02:00,
2013-02-15 22:07:00,44.6,33.9,29.66,WNW,293,0.0,0.4,66,0.00,,,0.00,WUHU216HW,2013-02-16 06:07:00,
2013-02-15 22:12:00,44.5,33.8,29.66,NE,45,0.4,0.7,66,0.00,,,0.00,WUHU216HW,2013-02-16 06:12:00,
2013-02-15 22:17:00,44.5,33.8,29.66,NNW,338,0.0,0.7,66,0.00,,,0.00,WUHU216HW,2013-02-16 06:17:00,
2013-02-15 22:22:00,44.6,33.9,29.65,NE,45,0.2,0.4,66,0.00,,,0.00,WUHU216HW,2013-02-16 06:22:00,
2013-02-15 22:27:00,44.6,33.9,29.65,ENE,68,0.2,0.4,66,0.00,,,0.00,WUHU216HW,2013-02-16 06:27:00,
2013-02-15 22:32:00,44.6,33.9,29.65,ENE,68,0.0,0.2,66,0.00,,,0.00,WUHU216HW,2013-02-16 06:32:00,
2013-02-15 22:37:00,44.6,33.9,29.65,NNW,338,0.0,0.2,66,0.00,,,0.00,WUHU216HW,2013-02-16 06:37:00,
2013-02-15 22:42:00,44.6,33.9,29.65,NNW,338,0.0,0.0,66,0.00,,,0.00,WUHU216HW,2013-02-16 06:42:00,
2013-02-15 22:47:00,44.6,33.9,29.65,NE,45,0.0,0.0,66,0.00,,,0.00,WUHU216HW,2013-02-16 06:47:00,
2013-02-15 22:52:00,44.6,33.9,29.65,NE,45,0.0,0.0,66,0.00,,,0.00,WUHU216HW,2013-02-16 06:52:00,
2013-02-15 22:57:00,44.6,33.9,29.65,ESE,113,0.0,0.0,66,0.00,,,0.00,WUHU216HW,2013-02-16 06:57:00,
2013-02-15 23:02:00,44.5,33.8,29.65,ESE,113,0.4,0.7,66,0.00,,,0.00,WUHU216HW,2013-02-16 07:02:00,
2013-02-15 23:07:00,44.3,33.6,29.65,ESE,113,0.9,0.9,66,0.00,,,0.00,WUHU216HW,2013-02-16 07:07:00,
2013-02-15 23:12:00,44.3,33.6,29.65,SE,135,0.7,0.9,66,0.00,,,0.00,WUHU216HW,2013-02-16 07:12:00,
2013-02-15 23:18:00,44.3,33.6,29.64,SSW,203,0.2,0.9,66,0.00,,,0.00,WUHU216HW,2013-02-16 07:18:00,
2013-02-15 23:23:00,44.3,33.6,29.64,SSW,203,0.0,0.7,66,0.00,,,0.00,WUHU216HW,2013-02-16 07:23:00,
2013-02-15 23:28:00,43.9,33.3,29.64,NE,45,1.1,1.1,66,0.00,,,0.00,WUHU216HW,2013-02-16 07:28:00,
2013-02-15 23:33:00,43.7,33.5,29.64,East,90,0.4,1.1,67,0.00,,,0.00,WUHU216HW,2013-02-16 07:33:00,
2013-02-15 23:38:00,43.7,33.5,29.64,East,90,0.0,0.9,67,0.00,,,0.00,WUHU216HW,2013-02-16 07:38:00,
2013-02-15 23:43:00,43.7,33.5,29.64,ESE,113,0.0,0.4,67,0.00,,,0.00,WUHU216HW,2013-02-16 07:43:00,
2013-02-15 23:48:00,43.7,33.5,29.64,SSE,158,0.4,0.4,67,0.00,,,0.00,WUHU216HW,2013-02-16 07:48:00,
2013-02-15 23:53:00,43.7,33.5,29.64,SSE,158,0.2,0.4,67,0.00,,,0.00,WUHU216HW,2013-02-16 07:53:00,
2013-02-15 23:58:00,43.6,33.3,29.64,SSE,158,0.4,0.9,67,0.00,,,0.00,WUHU216HW,2013-02-16 07:58:00,